Location: Mercogliano
(40.9167°N, 14.7333°E)
Time: 04:41:58
(UTC+00:00)

Cosmos 1867 - Pass Details

Date: 18 September 2020
Orbit: 777 x 799 km, 65.0° (Epoch: 25 October)

Event Time Altitude Azimuth Distance (km) Brightness Sun altitude
Rises 18:27:59 0° 329° (NNW) 3,311 7.6 -16.3°
Reaches altitude 10° 18:30:26 10° 332° (NNW) 2,378 6.7 -16.8°
Maximum altitude 18:35:54 69° 56° (NE) 854 3.5 -17.8°
Enters shadow 18:38:37 30° 132° (SE) 1,400 4.3 -18.3°
